Time,TemperatureF,DewpointF,PressureIn,WindDirection,WindDirectionDegrees,WindSpeedMPH,WindSpeedGustMPH,Humidity,HourlyPrecipIn,Conditions,Clouds,dailyrainin,SolarRadiationWatts/m^2,SoftwareType,DateUTC
2013-02-19 00:01:00,39.0,35.0,-100.00,ESE,120,0.0,0.0,85,0.00,,,0.00,0.000000,,2013-02-19 08:01:00,
2013-02-19 00:11:00,39.0,35.0,-100.00,ESE,120,0.0,0.0,85,0.00,,,0.00,0.000000,,2013-02-19 08:11:00,
2013-02-19 00:42:00,38.0,35.0,-100.00,NW,309,0.0,0.0,88,0.00,,,0.00,0.000000,,2013-02-19 08:42:00,
2013-02-19 00:52:00,38.0,35.0,-100.00,NW,309,0.0,0.0,88,0.00,,,0.00,0.000000,,2013-02-19 08:52:00,
2013-02-19 01:01:00,38.0,35.0,-100.00,NW,309,0.0,0.0,88,0.00,,,0.00,0.000000,,2013-02-19 09:01:00,
2013-02-19 01:11:00,38.0,35.0,-100.00,NW,309,0.0,0.0,88,0.00,,,0.00,0.000000,,2013-02-19 09:11:00,
2013-02-19 01:32:00,38.0,36.0,-100.00,ENE,60,0.0,0.0,94,0.03,,,0.03,0.000000,,2013-02-19 09:32:00,
2013-02-19 01:42:00,38.0,36.0,-100.00,ENE,60,0.0,0.0,94,0.03,,,0.03,0.000000,,2013-02-19 09:42:00,
2013-02-19 01:53:00,38.0,36.0,-100.00,ENE,60,0.0,0.0,94,0.03,,,0.03,0.000000,,2013-02-19 09:53:00,
2013-02-19 02:01:00,38.0,36.0,-100.00,ENE,60,0.0,0.0,94,0.03,,,0.03,0.000000,,2013-02-19 10:01:00,
2013-02-19 02:11:00,38.0,36.0,-100.00,ENE,60,0.0,0.0,94,0.03,,,0.03,0.000000,,2013-02-19 10:11:00,
2013-02-19 02:32:00,38.0,37.0,-100.00,East,94,0.0,0.0,96,0.00,,,0.03,0.000000,,2013-02-19 10:32:00,
2013-02-19 02:42:00,38.0,37.0,-100.00,East,94,0.0,0.0,96,0.00,,,0.03,0.000000,,2013-02-19 10:42:00,
2013-02-19 02:52:00,38.0,37.0,-100.00,East,94,0.0,0.0,96,0.00,,,0.03,0.000000,,2013-02-19 10:52:00,
2013-02-19 03:01:00,38.0,37.0,-100.00,East,94,0.0,0.0,96,0.00,,,0.03,0.000000,,2013-02-19 11:01:00,
2013-02-19 03:11:00,38.0,37.0,-100.00,East,94,0.0,0.0,96,0.00,,,0.03,0.000000,,2013-02-19 11:11:00,
2013-02-19 03:42:00,38.0,37.0,-100.00,ENE,69,1.0,1.0,95,0.03,,,0.06,0.000000,,2013-02-19 11:42:00,
2013-02-19 03:52:00,38.0,37.0,-100.00,ENE,69,1.0,1.0,95,0.03,,,0.06,0.000000,,2013-02-19 11:52:00,
2013-02-19 04:01:00,38.0,37.0,-100.00,ENE,69,1.0,1.0,95,0.03,,,0.06,0.000000,,2013-02-19 12:01:00,
2013-02-19 04:12:00,38.0,37.0,-100.00,ENE,69,1.0,1.0,95,0.03,,,0.06,0.000000,,2013-02-19 12:12:00,
2013-02-19 04:32:00,37.0,35.0,-100.00,East,89,0.0,9.0,91,0.00,,,0.06,0.000000,,2013-02-19 12:32:00,
2013-02-19 04:42:00,37.0,35.0,-100.00,East,89,0.0,9.0,91,0.00,,,0.06,0.000000,,2013-02-19 12:42:00,
2013-02-19 04:52:00,37.0,35.0,-100.00,East,89,0.0,9.0,91,0.00,,,0.06,0.000000,,2013-02-19 12:52:00,
2013-02-19 05:01:00,37.0,35.0,-100.00,East,89,0.0,9.0,91,0.00,,,0.06,0.000000,,2013-02-19 13:01:00,
2013-02-19 05:11:00,37.0,35.0,-100.00,East,89,0.0,9.0,91,0.00,,,0.06,0.000000,,2013-02-19 13:11:00,
2013-02-19 05:32:00,36.0,34.0,-100.00,NNE,33,0.0,0.0,94,0.00,,,0.06,0.000000,,2013-02-19 13:32:00,
2013-02-19 05:42:00,36.0,34.0,-100.00,NNE,33,0.0,0.0,94,0.00,,,0.06,0.000000,,2013-02-19 13:42:00,
2013-02-19 05:52:00,36.0,34.0,-100.00,NNE,33,0.0,0.0,94,0.00,,,0.06,0.000000,,2013-02-19 13:52:00,
2013-02-19 06:01:00,36.0,34.0,-100.00,NNE,33,0.0,0.0,94,0.00,,,0.06,0.000000,,2013-02-19 14:01:00,
2013-02-19 06:11:00,36.0,34.0,-100.00,NNE,33,0.0,0.0,94,0.00,,,0.06,0.000000,,2013-02-19 14:11:00,
2013-02-19 06:33:00,35.0,34.0,-100.00,North,10,0.0,9.0,96,0.00,,,0.06,0.000000,,2013-02-19 14:33:00,
2013-02-19 06:42:00,35.0,34.0,-100.00,North,10,0.0,9.0,96,0.00,,,0.06,0.000000,,2013-02-19 14:42:00,
2013-02-19 06:52:00,35.0,34.0,-100.00,North,10,0.0,9.0,96,0.00,,,0.06,0.000000,,2013-02-19 14:52:00,
2013-02-19 07:01:00,35.0,34.0,-100.00,North,10,0.0,9.0,96,0.00,,,0.06,0.000000,,2013-02-19 15:01:00,
2013-02-19 07:11:00,35.0,34.0,-100.00,North,10,0.0,9.0,96,0.00,,,0.06,0.000000,,2013-02-19 15:11:00,
2013-02-19 07:42:00,35.0,34.0,-100.00,East,95,0.0,0.0,97,0.00,,,0.06,0.000000,,2013-02-19 15:42:00,
2013-02-19 07:52:00,35.0,34.0,-100.00,East,95,0.0,0.0,97,0.00,,,0.06,0.000000,,2013-02-19 15:52:00,
2013-02-19 08:01:00,35.0,34.0,-100.00,East,95,0.0,0.0,97,0.00,,,0.06,0.000000,,2013-02-19 16:01:00,
2013-02-19 08:11:00,35.0,34.0,-100.00,East,95,0.0,0.0,97,0.00,,,0.06,0.000000,,2013-02-19 16:11:00,
2013-02-19 08:42:00,37.0,36.0,-100.00,NE,49,0.0,0.0,97,0.00,,,0.06,23.000000,,2013-02-19 16:42:00,
2013-02-19 08:52:00,37.0,36.0,-100.00,NE,49,0.0,0.0,97,0.00,,,0.06,23.000000,,2013-02-19 16:52:00,
2013-02-19 09:01:00,37.0,36.0,-100.00,NE,49,0.0,0.0,97,0.00,,,0.06,23.000000,,2013-02-19 17:01:00,
2013-02-19 09:11:00,37.0,36.0,-100.00,NE,49,0.0,0.0,97,0.00,,,0.06,23.000000,,2013-02-19 17:11:00,
2013-02-19 09:42:00,39.0,37.0,-100.00,NNE,28,0.0,0.0,91,0.00,,,0.06,96.000000,,2013-02-19 17:42:00,
2013-02-19 09:52:00,39.0,37.0,-100.00,NNE,28,0.0,0.0,91,0.00,,,0.06,96.000000,,2013-02-19 17:52:00,
2013-02-19 10:01:00,39.0,37.0,-100.00,NNE,28,0.0,0.0,91,0.00,,,0.06,96.000000,,2013-02-19 18:01:00,
2013-02-19 10:11:00,39.0,37.0,-100.00,NNE,28,0.0,0.0,91,0.00,,,0.06,96.000000,,2013-02-19 18:11:00,
2013-02-19 10:42:00,42.0,39.0,-100.00,West,269,0.0,0.0,89,0.00,,,0.06,182.000000,,2013-02-19 18:42:00,
2013-02-19 10:52:00,42.0,39.0,-100.00,West,269,0.0,0.0,89,0.00,,,0.06,182.000000,,2013-02-19 18:52:00,
2013-02-19 11:01:00,42.0,39.0,-100.00,West,269,0.0,0.0,89,0.00,,,0.06,182.000000,,2013-02-19 19:01:00,
2013-02-19 11:11:00,42.0,39.0,-100.00,West,269,0.0,0.0,89,0.00,,,0.06,182.000000,,2013-02-19 19:11:00,
2013-02-19 11:32:00,45.0,41.0,-100.00,WSW,254,0.0,0.0,85,0.00,,,0.06,392.000000,,2013-02-19 19:32:00,
2013-02-19 11:42:00,45.0,41.0,-100.00,WSW,254,0.0,0.0,85,0.00,,,0.06,392.000000,,2013-02-19 19:42:00,
2013-02-19 11:52:00,45.0,41.0,-100.00,WSW,254,0.0,0.0,85,0.00,,,0.06,392.000000,,2013-02-19 19:52:00,
2013-02-19 12:01:00,45.0,41.0,-100.00,WSW,254,0.0,0.0,85,0.00,,,0.06,392.000000,,2013-02-19 20:01:00,
2013-02-19 12:11:00,45.0,41.0,-100.00,WSW,254,0.0,0.0,85,0.00,,,0.06,392.000000,,2013-02-19 20:11:00,
2013-02-19 12:42:00,43.0,38.0,-100.00,West,276,0.0,9.0,83,0.00,,,-99.99,262.000000,,2013-02-19 20:42:00,
2013-02-19 12:52:00,43.0,38.0,-100.00,West,276,0.0,9.0,83,0.00,,,-99.99,262.000000,,2013-02-19 20:52:00,
2013-02-19 13:01:00,43.0,38.0,-100.00,West,276,0.0,9.0,83,0.00,,,-99.99,262.000000,,2013-02-19 21:01:00,
2013-02-19 13:11:00,43.0,38.0,-100.00,West,276,0.0,9.0,83,0.00,,,-99.99,262.000000,,2013-02-19 21:11:00,
2013-02-19 13:42:00,45.0,40.0,-100.00,WNW,291,0.0,0.0,81,0.00,,,-99.99,391.000000,,2013-02-19 21:42:00,
2013-02-19 13:52:00,45.0,40.0,-100.00,WNW,291,0.0,0.0,81,0.00,,,-99.99,391.000000,,2013-02-19 21:52:00,
2013-02-19 14:01:00,45.0,40.0,-100.00,WNW,291,0.0,0.0,81,0.00,,,-99.99,391.000000,,2013-02-19 22:01:00,
2013-02-19 14:11:00,45.0,40.0,-100.00,WNW,291,0.0,0.0,81,0.00,,,-99.99,391.000000,,2013-02-19 22:11:00,
2013-02-19 14:42:00,47.0,37.0,-100.00,WSW,257,1.0,2.0,69,0.00,,,-99.99,299.000000,,2013-02-19 22:42:00,
2013-02-19 14:52:00,47.0,37.0,-100.00,WSW,257,1.0,2.0,69,0.00,,,-99.99,299.000000,,2013-02-19 22:52:00,
2013-02-19 15:01:00,47.0,37.0,-100.00,WSW,257,1.0,2.0,69,0.00,,,-99.99,299.000000,,2013-02-19 23:01:00,
2013-02-19 15:11:00,47.0,37.0,-100.00,WSW,257,1.0,2.0,69,0.00,,,-99.99,299.000000,,2013-02-19 23:11:00,
2013-02-19 15:32:00,47.0,35.0,-100.00,WNW,297,1.0,3.0,64,0.00,,,0.06,381.000000,,2013-02-19 23:32:00,
2013-02-19 15:42:00,47.0,35.0,-100.00,WNW,297,1.0,3.0,64,0.00,,,0.06,381.000000,,2013-02-19 23:42:00,
2013-02-19 15:52:00,47.0,35.0,-100.00,WNW,297,1.0,3.0,64,0.00,,,0.06,381.000000,,2013-02-19 23:52:00,
2013-02-19 16:01:00,47.0,35.0,-100.00,WNW,297,1.0,3.0,64,0.00,,,0.06,381.000000,,2013-02-20 00:01:00,
2013-02-19 16:11:00,47.0,35.0,-100.00,WNW,297,1.0,3.0,64,0.00,,,0.06,381.000000,,2013-02-20 00:11:00,
2013-02-19 16:42:00,47.0,37.0,-100.00,WSW,254,0.0,0.0,68,0.00,,,0.06,83.000000,,2013-02-20 00:42:00,
2013-02-19 16:52:00,47.0,37.0,-100.00,WSW,254,0.0,0.0,68,0.00,,,0.06,83.000000,,2013-02-20 00:52:00,
2013-02-19 17:02:00,47.0,37.0,-100.00,WSW,254,0.0,0.0,68,0.00,,,0.06,83.000000,,2013-02-20 01:02:00,
2013-02-19 17:11:00,47.0,37.0,-100.00,WSW,254,0.0,0.0,68,0.00,,,0.06,83.000000,,2013-02-20 01:11:00,
2013-02-19 17:32:00,45.0,37.0,-100.00,WNW,292,0.0,0.0,74,0.00,,,0.06,42.000000,,2013-02-20 01:32:00,
2013-02-19 17:42:00,45.0,37.0,-100.00,WNW,292,0.0,0.0,74,0.00,,,0.06,42.000000,,2013-02-20 01:42:00,
2013-02-19 17:52:00,45.0,37.0,-100.00,WNW,292,0.0,0.0,74,0.00,,,0.06,42.000000,,2013-02-20 01:52:00,
2013-02-19 18:01:00,45.0,37.0,-100.00,WNW,292,0.0,0.0,74,0.00,,,0.06,42.000000,,2013-02-20 02:01:00,
2013-02-19 18:11:00,45.0,37.0,-100.00,WNW,292,0.0,0.0,74,0.00,,,0.06,42.000000,,2013-02-20 02:11:00,
2013-02-19 18:42:00,44.0,38.0,-100.00,North,10,0.0,1.0,78,0.00,,,0.06,13.000000,,2013-02-20 02:42:00,
2013-02-19 18:52:00,44.0,38.0,-100.00,North,10,0.0,1.0,78,0.00,,,0.06,13.000000,,2013-02-20 02:52:00,
2013-02-19 19:01:00,44.0,38.0,-100.00,North,10,0.0,1.0,78,0.00,,,0.06,13.000000,,2013-02-20 03:01:00,
2013-02-19 19:12:00,44.0,38.0,-100.00,North,10,0.0,1.0,78,0.00,,,0.06,13.000000,,2013-02-20 03:12:00,
2013-02-19 19:32:00,41.0,37.0,-100.00,ENE,70,0.0,0.0,85,0.00,,,0.06,0.000000,,2013-02-20 03:32:00,
2013-02-19 19:42:00,41.0,37.0,-100.00,ENE,70,0.0,0.0,85,0.00,,,0.06,0.000000,,2013-02-20 03:42:00,
2013-02-19 19:52:00,41.0,37.0,-100.00,ENE,70,0.0,0.0,85,0.00,,,0.06,0.000000,,2013-02-20 03:52:00,
2013-02-19 20:01:00,41.0,37.0,-100.00,ENE,70,0.0,0.0,85,0.00,,,0.06,0.000000,,2013-02-20 04:01:00,
2013-02-19 20:11:00,41.0,37.0,-100.00,ENE,70,0.0,0.0,85,0.00,,,0.06,0.000000,,2013-02-20 04:11:00,
2013-02-19 20:42:00,40.0,36.0,-100.00,NE,51,0.0,0.0,87,0.00,,,0.06,0.000000,,2013-02-20 04:42:00,
2013-02-19 20:52:00,40.0,36.0,-100.00,NE,51,0.0,0.0,87,0.00,,,0.06,0.000000,,2013-02-20 04:52:00,
2013-02-19 21:02:00,40.0,36.0,-100.00,NE,51,0.0,0.0,87,0.00,,,0.06,0.000000,,2013-02-20 05:02:00,
2013-02-19 21:12:00,40.0,36.0,-100.00,NE,51,0.0,0.0,87,0.00,,,0.06,0.000000,,2013-02-20 05:12:00,
2013-02-19 21:43:00,38.0,36.0,-100.00,ENE,61,0.0,0.0,92,0.00,,,0.06,0.000000,,2013-02-20 05:43:00,
2013-02-19 21:52:00,38.0,36.0,-100.00,ENE,61,0.0,0.0,92,0.00,,,0.06,0.000000,,2013-02-20 05:52:00,
2013-02-19 22:01:00,38.0,36.0,-100.00,ENE,61,0.0,0.0,92,0.00,,,0.06,0.000000,,2013-02-20 06:01:00,
2013-02-19 22:11:00,38.0,36.0,-100.00,ENE,61,0.0,0.0,92,0.00,,,0.06,0.000000,,2013-02-20 06:11:00,
2013-02-19 22:42:00,37.0,36.0,-100.00,ENE,61,0.0,0.0,95,0.00,,,0.06,0.000000,,2013-02-20 06:42:00,
2013-02-19 22:52:00,37.0,36.0,-100.00,ENE,61,0.0,0.0,95,0.00,,,0.06,0.000000,,2013-02-20 06:52:00,
2013-02-19 23:01:00,37.0,36.0,-100.00,ENE,61,0.0,0.0,95,0.00,,,0.06,0.000000,,2013-02-20 07:01:00,
2013-02-19 23:11:00,37.0,36.0,-100.00,ENE,61,0.0,0.0,95,0.00,,,0.06,0.000000,,2013-02-20 07:11:00,